IUS R/B(1), 22315

Orbit data source: Space-Track

IUS R/B(1), 22315 is space debris in HEO originally from a launch on Wed, 13 Jan 1993 UTC launched from the Air Force Eastern Test Range (AFETR). Debris objects in space refer to the collection of defunct objects orbiting the Earth. Examples of debris include non-operational satellites, rocket bodies, and fragments generated from explosions, collisions, or faulty payload assembly.

Loading next visibility...
Identifier
22315, 1993-003C
Orbit
HEO
Country
Flag of USUS
Related business
Manufacturer
UTC CSD
Mission
Spacecraft
Bus & Motor
ORBUS 21, Unknown motor
Mass
1,164 kg wet, ~1,164 kg dry
Launch date (UTC)
1993-01-13 (34 years ago)
Launch vehicle
Unknown
Launch site
Air Force Eastern Test Range (AFETR)
Object type
Payload
Rocket body
Debris
Shape & HBR
Cyl, 1.9 m
Radar Cross Section
7.708 m², Large (>1 m²)

Expand to show TLE details & history
Last TLE update: 8 hours ago

TLE from 8 hours ago
0 IUS R/B(1)
1 22315U 93003C   26266.25873660  .00004688  00000-0  82336-3 0  9998
2 22315  26.8400 184.8870 6008025 172.9478 202.5207  4.03877354187320
Epoch: 2026-09-23T06:12Z
TLE epoch observation values (Epoch: 2026-09-23T06:12:34.842Z)
Latitude
0.00001°
Longitude
89.61755°
Altitude
19,986.308 km
Speed
2.512 km/s
True Right ascension
12h 19m 30s
True Declination
0° 00' 00"
Sunlit
Object was in daylight at epoch
Visualization orbit readout
Latitude
Unknown
Longitude
Unknown
Altitude
Unknown
Speed
Unknown
Apparent Right ascension
Unknown
Apparent Declination
Unknown
Sunlit
N/A
Visualization observer readout
Local Sidereal Time
07:51:06
Azimuth
Unknown
Elevation
Unknown
Doppler factor
Unknown
Orbital elements
Apogee altitude
20,290.484 km
Perigee altitude
272.307 km
Semi-major axis
16,659.532 km
Eccentricity
0.6008
Inclination
26.84°
RAAN
184.887°
Arg. of periapsis
172.9478°
True anomaly
187.07899°
Mean anomaly
202.5207°
Eccentric anomaly
194.12188°
Mean motion
1.00937 °/min
Orbital period
356.66 mins
BSTAR
0.00082336
Loading maneuver chart data...
Computing Atmospheric mass density...
Loading historical data...
Loading historical data...
Loading historical data...
Loading historical data...
Loading historical data...
Loading historical data...
Loading historical data...
Other satellites on launch #3 in the year 1993 (1993-01-13 UTC)

Documentation

Showing up to 5 results
|